| time (UTC) | temp F | wind direction | speed knots | gust knots | rain 1hr in | rain 24hr in | rain mn in | humidity % | barometer mb |
| 20260509093517 | 26 | 66 | 1.7 | 2.6 | 0.00 | 0.00 | 0.00 | 96 | 1007.9 |
| 20260509093015 | 26 | 64 | 0.9 | 1.7 | 0.00 | 0.00 | 0.00 | 96 | 1007.8 |
| 20260509092512 | 26 | 342 | 0.9 | 1.7 | 0.00 | 0.00 | 0.00 | 96 | 1007.6 |
| 20260509092011 | 26 | 77 | 0.9 | 1.7 | 0.00 | 0.00 | 0.00 | 96 | 1007.6 |
| 20260509091508 | 26 | 57 | 1.7 | 1.7 | 0.00 | 0.00 | 0.00 | 96 | 1007.7 |
| 20260509091004 | 26 | 0 | 0.0 | 1.7 | 0.00 | 0.00 | 0.00 | 96 | 1007.5 |
| 20260509090502 | 26 | 319 | 0.9 | 1.7 | 0.00 | 0.00 | 0.00 | 96 | 1007.6 |
| 20260509085959 | 26 | 312 | 1.7 | 1.7 | 0.00 | 0.00 | 0.00 | 96 | 1007.6 |
| 20260509085456 | 25 | 333 | 0.0 | 1.7 | 0.00 | 0.00 | 0.00 | 96 | 1007.5 |
| 20260509084952 | 26 | 62 | 0.9 | 2.6 | 0.00 | 0.00 | 0.00 | 96 | 1007.6 |
| 20260509084449 | 26 | 68 | 1.7 | 1.7 | 0.00 | 0.00 | 0.00 | 96 | 1007.6 |
| 20260509083947 | 26 | 38 | 0.9 | 1.7 | 0.00 | 0.00 | 0.00 | 96 | 1007.5 |
| 20260509083444 | 26 | 69 | 0.9 | 1.7 | 0.00 | 0.00 | 0.00 | 96 | 1007.7 |
| 20260509082940 | 26 | 77 | 0.0 | 1.7 | 0.00 | 0.00 | 0.00 | 96 | 1007.4 |
| 20260509082438 | 26 | 325 | 0.9 | 1.7 | 0.00 | 0.00 | 0.00 | 96 | 1007.5 |
| 20260509081935 | 26 | 319 | 0.9 | 1.7 | 0.00 | 0.00 | 0.00 | 96 | 1007.5 |
| 20260509081432 | 26 | 15 | 0.0 | 0.9 | 0.00 | 0.00 | 0.00 | 96 | 1007.5 |
| 20260509080929 | 26 | 326 | 0.0 | 0.9 | 0.00 | 0.00 | 0.00 | 96 | 1007.3 |
| 20260509080427 | 26 | 24 | 0.0 | 1.7 | 0.00 | 0.00 | 0.00 | 96 | 1007.4 |
| 20260509075925 | 26 | 15 | 0.0 | 1.7 | 0.00 | 0.00 | 0.00 | 96 | 1007.5 |
| 20260509075422 | 26 | 31 | 0.9 | 1.7 | 0.00 | 0.00 | 0.00 | 96 | 1007.5 |
| 20260509074919 | 26 | 64 | 1.7 | 1.7 | 0.00 | 0.00 | 0.00 | 96 | 1007.6 |
| 20260509074417 | 26 | 55 | 0.0 | 1.7 | 0.00 | 0.00 | 0.00 | 96 | 1007.7 |
| 20260509073913 | 26 | 58 | 1.7 | 1.7 | 0.00 | 0.00 | 0.00 | 96 | 1007.7 |
| 20260509073409 | 26 | 58 | 1.7 | 1.7 | 0.00 | 0.00 | 0.00 | 96 | 1007.4 |
| 20260509072906 | 26 | 296 | 0.0 | 0.9 | 0.00 | 0.00 | 0.00 | 95 | 1007.6 |
| 20260509072402 | 26 | 22 | 0.0 | 1.7 | 0.00 | 0.00 | 0.00 | 95 | 1007.6 |
| 20260509071859 | 26 | 69 | 1.7 | 1.7 | 0.00 | 0.00 | 0.00 | 95 | 1007.6 |
| 20260509071356 | 26 | 54 | 1.7 | 1.7 | 0.00 | 0.00 | 0.00 | 95 | 1007.6 |
| 20260509070854 | 26 | 48 | 1.7 | 1.7 | 0.00 | 0.00 | 0.00 | 95 | 1007.8 |
| 20260509070350 | 26 | 24 | 0.0 | 0.9 | 0.00 | 0.00 | 0.00 | 95 | 1007.6 |
| 20260509065846 | 26 | 57 | 1.7 | 1.7 | 0.00 | 0.00 | 0.00 | 95 | 1007.5 |
| 20260509065343 | 27 | 44 | 0.9 | 1.7 | 0.00 | 0.00 | 0.00 | 95 | 1007.6 |
| 20260509064839 | 27 | 38 | 1.7 | 1.7 | 0.00 | 0.00 | 0.00 | 95 | 1007.6 |
| 20260509064336 | 27 | 20 | 0.9 | 1.7 | 0.00 | 0.00 | 0.00 | 95 | 1007.6 |
| 20260509063834 | 27 | 45 | 0.9 | 1.7 | 0.00 | 0.00 | 0.00 | 95 | 1007.6 |
| 20260509063330 | 27 | 21 | 0.9 | 2.6 | 0.00 | 0.00 | 0.00 | 95 | 1007.6 |
| 20260509062827 | 27 | 28 | 0.9 | 1.7 | 0.00 | 0.00 | 0.00 | 95 | 1007.6 |
| 20260509062324 | 27 | 70 | 0.9 | 1.7 | 0.00 | 0.00 | 0.00 | 94 | 1007.7 |
| 20260509061821 | 27 | 114 | 0.0 | 2.6 | 0.00 | 0.00 | 0.00 | 94 | 1007.5 |
| 20260509061320 | 27 | 340 | 0.0 | 1.7 | 0.00 | 0.00 | 0.00 | 94 | 1007.7 |
| 20260509060816 | 27 | 299 | 0.0 | 0.9 | 0.00 | 0.00 | 0.00 | 94 | 1007.9 |
| 20260509060313 | 27 | 38 | 0.9 | 1.7 | 0.00 | 0.00 | 0.00 | 94 | 1007.6 |
| 20260509055808 | 27 | 17 | 0.9 | 2.6 | 0.00 | 0.00 | 0.00 | 94 | 1007.6 |
| 20260509055306 | 28 | 56 | 0.0 | 1.7 | 0.00 | 0.00 | 0.00 | 94 | 1007.6 |
| 20260509054801 | 28 | 67 | 1.7 | 1.7 | 0.00 | 0.00 | 0.00 | 94 | 1007.6 |
| 20260509054258 | 28 | 0 | 0.0 | 1.7 | 0.00 | 0.00 | 0.00 | 94 | 1007.5 |
| 20260509053756 | 28 | 332 | 0.0 | 1.7 | 0.00 | 0.00 | 0.00 | 94 | 1007.5 |
| 20260509053253 | 28 | 4 | 1.7 | 1.7 | 0.00 | 0.00 | 0.00 | 94 | 1007.5 |
| 20260509052751 | 28 | 28 | 1.7 | 1.7 | 0.00 | 0.00 | 0.00 | 94 | 1007.3 |
| 20260509052248 | 28 | 1 | 1.7 | 1.7 | 0.00 | 0.00 | 0.00 | 94 | 1007.3 |
| 20260509051746 | 28 | 305 | 1.7 | 1.7 | 0.00 | 0.00 | 0.00 | 93 | 1007.4 |
| 20260509051244 | 28 | 58 | 0.9 | 1.7 | 0.00 | 0.00 | 0.00 | 94 | 1007.3 |
| 20260509050740 | 28 | 58 | 0.0 | 0.9 | 0.00 | 0.00 | 0.00 | 94 | 1007.5 |
| 20260509050237 | 28 | 21 | 0.0 | 0.9 | 0.00 | 0.00 | 0.00 | 94 | 1007.2 |
| 20260509045734 | 28 | 19 | 0.0 | 0.9 | 0.00 | 0.00 | 0.00 | 94 | 1007.3 |
| 20260509045231 | 28 | 26 | 0.9 | 1.7 | 0.00 | 0.00 | 0.00 | 93 | 1007.2 |
| 20260509044728 | 28 | 57 | 0.9 | 1.7 | 0.00 | 0.00 | 0.00 | 93 | 1007.3 |
| 20260509044226 | 28 | 342 | 0.0 | 1.7 | 0.00 | 0.00 | 0.00 | 93 | 1007.4 |
| 20260509043722 | 28 | 279 | 0.0 | 1.7 | 0.00 | 0.00 | 0.00 | 93 | 1007.5 |
| 20260509043218 | 28 | 74 | 1.7 | 1.7 | 0.00 | 0.00 | 0.00 | 93 | 1007.4 |
| 20260509042714 | 28 | 27 | 0.0 | 1.7 | 0.00 | 0.00 | 0.00 | 93 | 1007.4 |
| 20260509042210 | 29 | 19 | 0.0 | 1.7 | 0.00 | 0.00 | 0.00 | 93 | 1007.2 |
| 20260509041707 | 28 | 11 | 0.0 | 0.9 | 0.00 | 0.00 | 0.00 | 93 | 1007.4 |
| 20260509041205 | 28 | 60 | 0.0 | 0.9 | 0.00 | 0.00 | 0.00 | 92 | 1007.2 |
| 20260509040703 | 29 | 69 | 0.0 | 0.9 | 0.00 | 0.00 | 0.00 | 92 | 1007.2 |
| 20260509040159 | 29 | 50 | 0.0 | 1.7 | 0.00 | 0.00 | 0.00 | 92 | 1007.5 |
| 20260509035656 | 29 | 28 | 0.0 | 1.7 | 0.00 | 0.00 | 0.00 | 92 | 1007.3 |
| 20260509035153 | 29 | 320 | 0.0 | 0.9 | 0.00 | 0.00 | 0.00 | 91 | 1007.2 |
| 20260509034651 | 29 | 55 | 0.9 | 1.7 | 0.00 | 0.00 | 0.00 | 91 | 1007.3 |
| 20260509034147 | 29 | 23 | 0.0 | 1.7 | 0.00 | 0.00 | 0.00 | 91 | 1007.1 |
| 20260509033645 | 29 | 5 | 0.9 | 1.7 | 0.00 | 0.00 | 0.00 | 90 | 1007.0 |
| 20260509033141 | 30 | 33 | 0.9 | 1.7 | 0.00 | 0.00 | 0.00 | 90 | 1007.1 |
| 20260509032639 | 30 | 62 | 0.0 | 0.9 | 0.00 | 0.00 | 0.00 | 90 | 1007.1 |
| 20260509032136 | 30 | 349 | 0.9 | 1.7 | 0.00 | 0.00 | 0.00 | 89 | 1006.9 |
| 20260509031633 | 30 | 322 | 1.7 | 1.7 | 0.00 | 0.00 | 0.00 | 90 | 1006.8 |
| 20260509031130 | 30 | 338 | 0.0 | 1.7 | 0.00 | 0.00 | 0.00 | 90 | 1007.0 |
| 20260509030629 | 30 | 22 | 0.9 | 0.9 | 0.00 | 0.00 | 0.00 | 90 | 1006.8 |
| 20260509030126 | 30 | 332 | 0.0 | 0.9 | 0.00 | 0.00 | 0.00 | 89 | 1006.6 |
| 20260509025622 | 30 | 3 | 0.0 | 0.9 | 0.00 | 0.00 | 0.00 | 89 | 1006.8 |
| 20260509025117 | 31 | 13 | 0.0 | 0.9 | 0.00 | 0.00 | 0.00 | 89 | 1006.8 |
| 20260509024613 | 31 | 353 | 0.9 | 1.7 | 0.00 | 0.00 | 0.00 | 89 | 1006.8 |
| 20260509024109 | 31 | 13 | 0.9 | 1.7 | 0.00 | 0.00 | 0.00 | 88 | 1006.5 |
| 20260509023608 | 31 | 32 | 0.0 | 0.9 | 0.00 | 0.00 | 0.00 | 88 | 1006.5 |
| 20260509023104 | 32 | 39 | 0.0 | 0.9 | 0.00 | 0.00 | 0.00 | 87 | 1006.6 |
| 20260509022600 | 32 | 51 | 0.9 | 0.9 | 0.00 | 0.00 | 0.00 | 87 | 1006.5 |
| 20260509022058 | 32 | 30 | 0.9 | 1.7 | 0.00 | 0.00 | 0.00 | 87 | 1006.5 |
| 20260509021555 | 32 | 1 | 0.0 | 1.7 | 0.00 | 0.00 | 0.00 | 86 | 1006.5 |
| 20260509021052 | 33 | 42 | 0.9 | 1.7 | 0.00 | 0.00 | 0.00 | 85 | 1006.6 |
| 20260509020550 | 33 | 43 | 0.9 | 1.7 | 0.00 | 0.00 | 0.00 | 85 | 1006.8 |
| 20260509020047 | 33 | 51 | 0.9 | 1.7 | 0.00 | 0.00 | 0.00 | 84 | 1006.4 |
| 20260509015546 | 34 | 33 | 0.9 | 1.7 | 0.00 | 0.00 | 0.00 | 83 | 1006.3 |
| 20260509015043 | 34 | 22 | 0.9 | 1.7 | 0.00 | 0.00 | 0.00 | 84 | 1006.4 |
| 20260509014539 | 35 | 22 | 0.0 | 0.9 | 0.00 | 0.00 | 0.00 | 83 | 1006.2 |
| 20260509014036 | 35 | 32 | 0.0 | 0.9 | 0.00 | 0.00 | 0.00 | 82 | 1006.0 |
| 20260509013533 | 35 | 66 | 0.0 | 1.7 | 0.00 | 0.00 | 0.00 | 81 | 1006.0 |
| 20260509013028 | 35 | 315 | 0.0 | 0.9 | 0.00 | 0.00 | 0.00 | 83 | 1006.0 |
| 20260509012525 | 36 | 302 | 0.0 | 1.7 | 0.00 | 0.00 | 0.00 | 82 | 1005.8 |
| 20260509012022 | 36 | 346 | 0.0 | 1.7 | 0.00 | 0.00 | 0.00 | 80 | 1005.8 |
| 20260509011520 | 37 | 336 | 0.0 | 0.9 | 0.00 | 0.00 | 0.00 | 77 | 1005.8 |
| 20260509011017 | 37 | 0 | 0.0 | 1.7 | 0.00 | 0.00 | 0.00 | 76 | 1005.7 |
| 20260509010515 | 37 | 310 | 0.9 | 1.7 | 0.00 | 0.00 | 0.00 | 80 | 1005.7 |
| 20260509010011 | 37 | 336 | 0.0 | 0.9 | 0.00 | 0.00 | 0.00 | 81 | 1005.7 |
| 20260509005509 | 37 | 304 | 0.0 | 0.9 | 0.00 | 0.00 | 0.00 | 80 | 1005.5 |
| 20260509005009 | 38 | 55 | 0.0 | 0.9 | 0.00 | 0.00 | 0.00 | 74 | 1005.5 |
| 20260509004506 | 38 | 5 | 0.0 | 1.7 | 0.00 | 0.00 | 0.00 | 73 | 1005.5 |
| 20260509004003 | 39 | 294 | 0.0 | 1.7 | 0.00 | 0.00 | 0.00 | 73 | 1005.4 |
| 20260509003502 | 39 | 10 | 0.0 | 0.9 | 0.00 | 0.00 | 0.00 | 73 | 1005.4 |
| 20260509002958 | 39 | 39 | 0.9 | 1.7 | 0.00 | 0.00 | 0.00 | 75 | 1005.4 |
| 20260509002456 | 39 | 19 | 0.0 | 0.9 | 0.00 | 0.00 | 0.00 | 76 | 1005.2 |
| 20260509001953 | 39 | 19 | 0.9 | 0.9 | 0.00 | 0.00 | 0.00 | 77 | 1005.2 |
| 20260509001449 | 39 | 58 | 0.0 | 0.9 | 0.00 | 0.00 | 0.00 | 75 | 1005.1 |
| 20260509000946 | 40 | 22 | 0.0 | 0.9 | 0.00 | 0.00 | 0.00 | 73 | 1005.1 |
| 20260509000447 | 41 | 55 | 0.0 | 0.9 | 0.00 | 0.00 | 0.00 | 70 | 1004.9 |
| 20260508235940 | 42 | 76 | 0.0 | 0.9 | 0.00 | 0.00 | 0.00 | 65 | 1005.0 |
| 20260508235438 | 43 | 46 | 0.9 | 0.9 | 0.00 | 0.00 | 0.00 | 63 | 1005.0 |
| 20260508234934 | 44 | 76 | 1.7 | 1.7 | 0.00 | 0.00 | 0.00 | 62 | 1004.8 |
| 20260508234431 | 44 | 103 | 0.0 | 0.0 | 0.00 | 0.00 | 0.00 | 58 | 1004.8 |
| 20260508233929 | 46 | 72 | 1.7 | 1.7 | 0.00 | 0.00 | 0.00 | 54 | 1004.6 |
| 20260508233428 | 46 | 63 | 1.7 | 1.7 | 0.00 | 0.00 | 0.00 | 48 | 1004.7 |
| 20260508232925 | 47 | 38 | 1.7 | 1.7 | 0.00 | 0.00 | 0.00 | 47 | 1004.6 |
| 20260508232422 | 47 | 96 | 0.0 | 1.7 | 0.00 | 0.00 | 0.00 | 46 | 1004.7 |
| 20260508231919 | 47 | 269 | 0.0 | 1.7 | 0.00 | 0.00 | 0.00 | 46 | 1004.8 |
| 20260508231416 | 47 | 281 | 0.9 | 1.7 | 0.00 | 0.00 | 0.00 | 44 | 1004.6 |
| 20260508230913 | 47 | 346 | 0.0 | 2.6 | 0.00 | 0.00 | 0.00 | 42 | 1004.7 |
| 20260508230409 | 48 | 282 | 2.6 | 5.2 | 0.00 | 0.00 | 0.00 | 42 | 1004.6 |
| 20260508225906 | 48 | 320 | 6.1 | 6.1 | 0.00 | 0.00 | 0.00 | 41 | 1004.7 |
| 20260508225403 | 48 | 289 | 5.2 | 9.6 | 0.00 | 0.00 | 0.00 | 41 | 1004.7 |
| 20260508224901 | 48 | 293 | 4.3 | 5.2 | 0.00 | 0.00 | 0.00 | 42 | 1004.6 |
| 20260508224358 | 48 | 290 | 1.7 | 7.0 | 0.00 | 0.00 | 0.00 | 42 | 1004.6 |
| 20260508223856 | 48 | 274 | 3.5 | 9.6 | 0.00 | 0.00 | 0.00 | 42 | 1004.6 |
| 20260508223353 | 48 | 279 | 3.5 | 7.0 | 0.00 | 0.00 | 0.00 | 42 | 1004.7 |
| 20260508222851 | 48 | 261 | 4.3 | 7.0 | 0.00 | 0.00 | 0.00 | 41 | 1004.8 |
| 20260508222347 | 48 | 295 | 7.8 | 9.6 | 0.00 | 0.00 | 0.00 | 40 | 1004.5 |
| 20260508221844 | 48 | 271 | 6.1 | 9.6 | 0.00 | 0.00 | 0.00 | 41 | 1004.4 |
| 20260508221339 | 48 | 275 | 6.1 | 7.8 | 0.00 | 0.00 | 0.00 | 41 | 1004.4 |
| 20260508220836 | 49 | 254 | 3.5 | 4.3 | 0.00 | 0.00 | 0.00 | 42 | 1004.3 |
| 20260508220332 | 48 | 273 | 5.2 | 7.0 | 0.00 | 0.00 | 0.00 | 43 | 1004.4 |
| 20260508215829 | 48 | 275 | 7.0 | 10.4 | 0.00 | 0.00 | 0.00 | 42 | 1004.3 |
| 20260508215326 | 49 | 274 | 3.5 | 13.9 | 0.00 | 0.00 | 0.00 | 41 | 1004.2 |
| 20260508214823 | 49 | 289 | 0.0 | 8.7 | 0.00 | 0.00 | 0.00 | 41 | 1004.3 |
| 20260508214320 | 50 | 271 | 5.2 | 7.0 | 0.00 | 0.00 | 0.00 | 40 | 1004.2 |
| 20260508213816 | 49 | 282 | 2.6 | 9.6 | 0.00 | 0.00 | 0.00 | 40 | 1004.1 |
| 20260508213313 | 49 | 304 | 2.6 | 5.2 | 0.00 | 0.00 | 0.00 | 40 | 1004.1 |
| 20260508212810 | 49 | 288 | 5.2 | 7.0 | 0.00 | 0.00 | 0.00 | 40 | 1004.1 |
| 20260508212306 | 50 | 259 | 5.2 | 9.6 | 0.00 | 0.00 | 0.00 | 42 | 1004.2 |
| 20260508211801 | 51 | 281 | 5.2 | 7.0 | 0.00 | 0.00 | 0.00 | 39 | 1004.1 |
| 20260508211257 | 50 | 273 | 8.7 | 9.6 | 0.00 | 0.00 | 0.00 | 40 | 1004.1 |
| 20260508210755 | 50 | 291 | 6.1 | 9.6 | 0.00 | 0.00 | 0.00 | 40 | 1004.0 |
| 20260508210252 | 50 | 333 | 2.6 | 7.8 | 0.00 | 0.00 | 0.00 | 41 | 1004.1 |
| 20260508205749 | 50 | 320 | 5.2 | 11.3 | 0.00 | 0.00 | 0.00 | 43 | 1004.0 |
| 20260508205245 | 48 | 278 | 7.0 | 7.8 | 0.00 | 0.00 | 0.00 | 42 | 1003.9 |
| 20260508204742 | 48 | 247 | 9.6 | 10.4 | 0.00 | 0.00 | 0.00 | 42 | 1003.9 |
| 20260508204238 | 48 | 257 | 6.1 | 8.7 | 0.00 | 0.00 | 0.00 | 43 | 1003.9 |
| 20260508203734 | 48 | 300 | 4.3 | 10.4 | 0.00 | 0.00 | 0.00 | 42 | 1004.1 |
| 20260508203231 | 49 | 260 | 6.1 | 7.8 | 0.00 | 0.00 | 0.00 | 43 | 1003.7 |
| 20260508202726 | 50 | 298 | 9.6 | 13.0 | 0.00 | 0.00 | 0.00 | 41 | 1004.0 |
| 20260508202224 | 48 | 274 | 3.5 | 7.0 | 0.00 | 0.00 | 0.00 | 43 | 1003.9 |
| 20260508201721 | 49 | 297 | 6.1 | 13.0 | 0.00 | 0.00 | 0.00 | 42 | 1003.8 |
| 20260508201217 | 50 | 254 | 7.0 | 10.4 | 0.00 | 0.00 | 0.00 | 42 | 1003.8 |
| 20260508200714 | 50 | 245 | 7.0 | 14.8 | 0.00 | 0.00 | 0.00 | 42 | 1003.9 |
| 20260508200210 | 50 | 262 | 8.7 | 14.8 | 0.00 | 0.00 | 0.00 | 42 | 1004.0 |
| 20260508195707 | 51 | 28 | 0.9 | 7.8 | 0.00 | 0.00 | 0.00 | 40 | 1003.7 |
| 20260508195203 | 51 | 273 | 7.8 | 13.0 | 0.00 | 0.00 | 0.00 | 42 | 1004.0 |
| 20260508194700 | 50 | 233 | 2.6 | 13.0 | 0.00 | 0.00 | 0.00 | 42 | 1004.1 |
| 20260508194157 | 49 | 265 | 7.0 | 8.7 | 0.00 | 0.00 | 0.00 | 42 | 1004.1 |
| 20260508193654 | 49 | 332 | 3.5 | 17.4 | 0.00 | 0.00 | 0.00 | 45 | 1003.9 |
| 20260508193151 | 49 | 352 | 4.3 | 9.6 | 0.00 | 0.00 | 0.00 | 41 | 1004.0 |
| 20260508192647 | 49 | 292 | 7.0 | 8.7 | 0.00 | 0.00 | 0.00 | 43 | 1004.0 |
| 20260508192145 | 49 | 273 | 11.3 | 12.2 | 0.00 | 0.00 | 0.00 | 43 | 1004.0 |
| 20260508191642 | 49 | 287 | 2.6 | 9.6 | 0.00 | 0.00 | 0.00 | 44 | 1003.9 |
| 20260508191138 | 49 | 283 | 6.1 | 13.0 | 0.00 | 0.00 | 0.00 | 42 | 1003.9 |
| 20260508190635 | 49 | 265 | 12.2 | 14.8 | 0.00 | 0.00 | 0.00 | 42 | 1004.1 |
| 20260508190132 | 48 | 275 | 3.5 | 14.8 | 0.00 | 0.00 | 0.00 | 42 | 1004.0 |
| 20260508185629 | 48 | 252 | 9.6 | 10.4 | 0.00 | 0.00 | 0.00 | 43 | 1004.1 |
| 20260508185126 | 47 | 276 | 7.0 | 13.9 | 0.00 | 0.00 | 0.00 | 44 | 1004.0 |
| 20260508184623 | 48 | 279 | 6.1 | 18.2 | 0.00 | 0.00 | 0.00 | 43 | 1004.3 |
| 20260508184120 | 48 | 265 | 7.0 | 17.4 | 0.00 | 0.00 | 0.00 | 42 | 1004.2 |
| 20260508183617 | 48 | 252 | 6.1 | 8.7 | 0.00 | 0.00 | 0.00 | 44 | 1004.1 |
| 20260508183113 | 48 | 268 | 2.6 | 9.6 | 0.00 | 0.00 | 0.00 | 44 | 1004.2 |
| 20260508182609 | 48 | 3 | 3.5 | 10.4 | 0.00 | 0.00 | 0.00 | 43 | 1004.2 |
| 20260508182106 | 47 | 259 | 7.8 | 11.3 | 0.00 | 0.00 | 0.00 | 47 | 1004.2 |
| 20260508181607 | 47 | 280 | 5.2 | 13.9 | 0.00 | 0.00 | 0.00 | 45 | 1004.1 |
| 20260508181105 | 47 | 283 | 6.1 | 17.4 | 0.00 | 0.00 | 0.00 | 46 | 1004.3 |
| 20260508180601 | 47 | 308 | 3.5 | 13.0 | 0.00 | 0.00 | 0.00 | 43 | 1004.2 |
| 20260508180057 | 47 | 269 | 7.8 | 12.2 | 0.00 | 0.00 | 0.00 | 47 | 1004.1 |
| 20260508175554 | 46 | 251 | 7.0 | 13.0 | 0.00 | 0.00 | 0.00 | 47 | 1004.2 |
| 20260508175052 | 46 | 280 | 7.0 | 13.0 | 0.00 | 0.00 | 0.00 | 45 | 1004.0 |
| 20260508174549 | 46 | 278 | 9.6 | 13.9 | 0.00 | 0.00 | 0.00 | 46 | 1004.2 |
| 20260508174046 | 45 | 303 | 11.3 | 15.6 | 0.00 | 0.00 | 0.00 | 44 | 1004.1 |
| 20260508173543 | 46 | 298 | 8.7 | 11.3 | 0.00 | 0.00 | 0.00 | 45 | 1004.1 |
| 20260508173039 | 46 | 288 | 7.8 | 13.9 | 0.00 | 0.00 | 0.00 | 43 | 1004.1 |
| 20260508172536 | 46 | 266 | 7.0 | 13.9 | 0.00 | 0.00 | 0.00 | 44 | 1004.2 |
| 20260508172032 | 46 | 275 | 7.8 | 15.6 | 0.00 | 0.00 | 0.00 | 43 | 1004.1 |
| 20260508171529 | 46 | 290 | 9.6 | 16.5 | 0.00 | 0.00 | 0.00 | 42 | 1004.2 |
| 20260508171026 | 46 | 305 | 2.6 | 13.9 | 0.00 | 0.00 | 0.00 | 42 | 1004.1 |
| 20260508170523 | 46 | 288 | 5.2 | 10.4 | 0.00 | 0.00 | 0.00 | 44 | 1004.0 |
| 20260508170020 | 47 | 228 | 9.6 | 12.2 | 0.00 | 0.00 | 0.00 | 44 | 1003.9 |
| 20260508165518 | 47 | 292 | 5.2 | 9.6 | 0.00 | 0.00 | 0.00 | 44 | 1004.0 |
| 20260508165014 | 47 | 259 | 7.8 | 15.6 | 0.00 | 0.00 | 0.00 | 41 | 1004.0 |
| 20260508164511 | 48 | 295 | 15.6 | 17.4 | 0.00 | 0.00 | 0.00 | 43 | 1004.1 |
| 20260508164007 | 48 | 291 | 7.8 | 10.4 | 0.00 | 0.00 | 0.00 | 43 | 1003.8 |
| 20260508163505 | 48 | 253 | 5.2 | 13.9 | 0.00 | 0.00 | 0.00 | 44 | 1004.0 |
| 20260508163001 | 46 | 284 | 6.1 | 10.4 | 0.00 | 0.00 | 0.00 | 48 | 1004.1 |
| 20260508162458 | 46 | 274 | 8.7 | 13.0 | 0.00 | 0.00 | 0.00 | 48 | 1004.0 |
| 20260508161955 | 46 | 257 | 6.1 | 10.4 | 0.00 | 0.00 | 0.00 | 52 | 1004.1 |
| 20260508161452 | 46 | 265 | 5.2 | 9.6 | 0.00 | 0.00 | 0.00 | 51 | 1004.0 |
| 20260508160949 | 46 | 273 | 14.8 | 16.5 | 0.00 | 0.00 | 0.00 | 52 | 1003.9 |
| 20260508160448 | 46 | 246 | 3.5 | 6.1 | 0.00 | 0.00 | 0.00 | 53 | 1004.1 |
| 20260508155944 | 45 | 227 | 5.2 | 7.8 | 0.00 | 0.00 | 0.00 | 56 | 1004.1 |
| 20260508155441 | 46 | 244 | 6.1 | 13.0 | 0.00 | 0.00 | 0.00 | 54 | 1004.0 |
| 20260508154938 | 45 | 285 | 3.5 | 8.7 | 0.00 | 0.00 | 0.00 | 55 | 1004.2 |
| 20260508154436 | 45 | 252 | 4.3 | 10.4 | 0.00 | 0.00 | 0.00 | 55 | 1004.2 |
| 20260508153932 | 45 | 279 | 5.2 | 9.6 | 0.00 | 0.00 | 0.00 | 56 | 1004.0 |
| 20260508153429 | 45 | 276 | 12.2 | 14.8 | 0.00 | 0.00 | 0.00 | 54 | 1004.0 |
| 20260508152925 | 46 | 283 | 5.2 | 12.2 | 0.00 | 0.00 | 0.00 | 54 | 1004.0 |
| 20260508152422 | 47 | 230 | 15.6 | 17.4 | 0.00 | 0.00 | 0.00 | 54 | 1004.0 |
| 20260508151919 | 45 | 273 | 7.8 | 11.3 | 0.00 | 0.00 | 0.00 | 58 | 1004.2 |
| 20260508151415 | 45 | 241 | 11.3 | 17.4 | 0.00 | 0.00 | 0.00 | 57 | 1003.9 |
| 20260508150912 | 45 | 278 | 7.8 | 10.4 | 0.00 | 0.00 | 0.00 | 57 | 1003.9 |
| 20260508150408 | 44 | 298 | 9.6 | 10.4 | 0.00 | 0.00 | 0.00 | 59 | 1004.2 |
| 20260508145905 | 45 | 322 | 2.6 | 13.9 | 0.00 | 0.00 | 0.00 | 58 | 1004.0 |
| 20260508145401 | 44 | 324 | 4.3 | 11.3 | 0.00 | 0.00 | 0.00 | 60 | 1004.1 |
| 20260508144858 | 43 | 259 | 3.5 | 15.6 | 0.00 | 0.00 | 0.00 | 61 | 1003.9 |
| 20260508144356 | 43 | 296 | 14.8 | 14.8 | 0.00 | 0.00 | 0.00 | 64 | 1004.2 |
| 20260508143853 | 43 | 66 | 2.6 | 11.3 | 0.00 | 0.00 | 0.00 | 67 | 1004.1 |
| 20260508143350 | 44 | 324 | 4.3 | 20.0 | 0.00 | 0.00 | 0.00 | 63 | 1004.1 |
| 20260508142847 | 46 | 333 | 5.2 | 10.4 | 0.00 | 0.00 | 0.00 | 56 | 1003.8 |
| 20260508142344 | 46 | 277 | 5.2 | 9.6 | 0.00 | 0.00 | 0.00 | 56 | 1003.7 |
| 20260508141840 | 45 | 286 | 7.0 | 14.8 | 0.00 | 0.00 | 0.00 | 56 | 1003.9 |
| 20260508141337 | 45 | 267 | 7.0 | 8.7 | 0.00 | 0.00 | 0.00 | 54 | 1003.7 |
| 20260508140835 | 46 | 269 | 13.0 | 17.4 | 0.00 | 0.00 | 0.00 | 59 | 1003.9 |
| 20260508140331 | 45 | 285 | 9.6 | 11.3 | 0.00 | 0.00 | 0.00 | 57 | 1003.8 |
| 20260508135827 | 44 | 289 | 4.3 | 8.7 | 0.00 | 0.00 | 0.00 | 58 | 1003.9 |
| 20260508135324 | 44 | 260 | 6.1 | 9.6 | 0.00 | 0.00 | 0.00 | 59 | 1003.8 |
| 20260508134820 | 44 | 275 | 10.4 | 12.2 | 0.00 | 0.00 | 0.00 | 58 | 1003.9 |
| 20260508134317 | 44 | 272 | 3.5 | 8.7 | 0.00 | 0.00 | 0.00 | 58 | 1003.9 |
| 20260508133813 | 44 | 279 | 6.1 | 11.3 | 0.00 | 0.00 | 0.00 | 57 | 1003.8 |
| 20260508133311 | 44 | 331 | 4.3 | 7.8 | 0.00 | 0.00 | 0.00 | 58 | 1004.0 |
| 20260508132808 | 44 | 272 | 5.2 | 9.6 | 0.00 | 0.00 | 0.00 | 60 | 1003.6 |
| 20260508132306 | 44 | 250 | 9.6 | 11.3 | 0.00 | 0.00 | 0.00 | 58 | 1003.8 |
| 20260508131802 | 45 | 276 | 7.0 | 11.3 | 0.00 | 0.00 | 0.00 | 56 | 1004.0 |
| 20260508131258 | 45 | 280 | 8.7 | 12.2 | 0.00 | 0.00 | 0.00 | 56 | 1003.9 |
| 20260508130754 | 45 | 281 | 11.3 | 11.3 | 0.00 | 0.00 | 0.00 | 56 | 1003.9 |
| 20260508130252 | 46 | 283 | 5.2 | 14.8 | 0.00 | 0.00 | 0.00 | 54 | 1003.7 |
| 20260508125747 | 47 | 269 | 4.3 | 4.3 | 0.00 | 0.00 | 0.00 | 56 | 1003.6 |
| 20260508125244 | 45 | 344 | 6.1 | 12.2 | 0.00 | 0.00 | 0.00 | 55 | 1003.7 |
| 20260508124742 | 45 | 264 | 3.5 | 10.4 | 0.00 | 0.00 | 0.00 | 57 | 1003.7 |
| 20260508124239 | 45 | 279 | 9.6 | 16.5 | 0.00 | 0.00 | 0.00 | 56 | 1003.8 |
| 20260508123737 | 46 | 272 | 6.1 | 11.3 | 0.00 | 0.00 | 0.00 | 58 | 1003.8 |
| 20260508123235 | 45 | 83 | 2.6 | 9.6 | 0.00 | 0.00 | 0.00 | 57 | 1003.4 |
| 20260508122731 | 45 | 250 | 7.0 | 7.8 | 0.00 | 0.00 | 0.00 | 59 | 1003.7 |
| 20260508122228 | 44 | 301 | 3.5 | 9.6 | 0.00 | 0.00 | 0.00 | 59 | 1003.7 |
| 20260508121725 | 44 | 254 | 9.6 | 10.4 | 0.00 | 0.00 | 0.00 | 61 | 1003.6 |
| 20260508121224 | 44 | 245 | 3.5 | 10.4 | 0.00 | 0.00 | 0.00 | 60 | 1003.4 |
| 20260508120721 | 44 | 268 | 8.7 | 12.2 | 0.00 | 0.00 | 0.00 | 60 | 1003.4 |
| 20260508120219 | 44 | 249 | 8.7 | 8.7 | 0.00 | 0.00 | 0.00 | 60 | 1003.3 |
| 20260508115716 | 44 | 273 | 4.3 | 9.6 | 0.00 | 0.00 | 0.00 | 63 | 1003.7 |
| 20260508115213 | 43 | 280 | 4.3 | 11.3 | 0.00 | 0.00 | 0.00 | 62 | 1003.4 |
| 20260508114710 | 43 | 271 | 5.2 | 9.6 | 0.00 | 0.00 | 0.00 | 62 | 1003.6 |
| 20260508114207 | 42 | 260 | 6.1 | 7.0 | 0.00 | 0.00 | 0.00 | 63 | 1003.4 |
| 20260508113703 | 42 | 280 | 7.8 | 9.6 | 0.00 | 0.00 | 0.00 | 64 | 1003.6 |
| 20260508113202 | 41 | 263 | 4.3 | 7.8 | 0.00 | 0.00 | 0.00 | 66 | 1003.6 |
| 20260508112657 | 40 | 275 | 5.2 | 6.1 | 0.00 | 0.00 | 0.00 | 67 | 1003.3 |
| 20260508112154 | 40 | 258 | 3.5 | 6.1 | 0.00 | 0.00 | 0.00 | 66 | 1003.0 |
| 20260508111651 | 41 | 314 | 3.5 | 5.2 | 0.00 | 0.00 | 0.00 | 67 | 1003.2 |
| 20260508111149 | 41 | 266 | 4.3 | 9.6 | 0.00 | 0.00 | 0.00 | 68 | 1003.2 |
| 20260508110646 | 40 | 299 | 5.2 | 5.2 | 0.00 | 0.00 | 0.00 | 76 | 1003.3 |
| 20260508110142 | 40 | 273 | 5.2 | 5.2 | 0.00 | 0.00 | 0.00 | 79 | 1003.3 |
| 20260508105637 | 37 | 312 | 3.5 | 9.6 | 0.00 | 0.00 | 0.00 | 94 | 1003.2 |
| 20260508105135 | 34 | 35 | 1.7 | 3.5 | 0.00 | 0.00 | 0.00 | 97 | 1003.3 |
| 20260508104632 | 32 | 33 | 0.0 | 1.7 | 0.00 | 0.00 | 0.00 | 96 | 1003.3 |
| 20260508104129 | 32 | 1 | 0.0 | 1.7 | 0.00 | 0.00 | 0.00 | 96 | 1003.2 |
| 20260508103626 | 31 | 317 | 0.9 | 1.7 | 0.00 | 0.00 | 0.00 | 96 | 1002.9 |
| 20260508103123 | 31 | 306 | 0.0 | 0.9 | 0.00 | 0.00 | 0.00 | 96 | 1003.1 |
| 20260508102620 | 30 | 18 | 1.7 | 1.7 | 0.00 | 0.00 | 0.00 | 96 | 1003.0 |
| 20260508102118 | 30 | 44 | 0.0 | 1.7 | 0.00 | 0.00 | 0.00 | 96 | 1003.2 |
| 20260508101615 | 29 | 358 | 1.7 | 1.7 | 0.00 | 0.00 | 0.00 | 96 | 1002.8 |
| 20260508101112 | 29 | 11 | 0.9 | 1.7 | 0.00 | 0.00 | 0.00 | 97 | 1002.9 |
| 20260508100610 | 29 | 305 | 0.0 | 1.7 | 0.00 | 0.00 | 0.00 | 97 | 1003.0 |
| 20260508100107 | 28 | 304 | 0.0 | 1.7 | 0.00 | 0.00 | 0.00 | 97 | 1002.9 |
| 20260508095604 | 28 | 293 | 0.0 | 1.7 | 0.00 | 0.00 | 0.00 | 97 | 1002.7 |
| 20260508095101 | 28 | 338 | 0.9 | 1.7 | 0.00 | 0.00 | 0.00 | 97 | 1002.8 |
| 20260508094558 | 28 | 29 | 0.0 | 1.7 | 0.00 | 0.00 | 0.00 | 97 | 1002.7 |
| 20260508094055 | 28 | 338 | 0.0 | 1.7 | 0.00 | 0.00 | 0.00 | 97 | 1002.6 |